Regional Weather Roundup
Issued by NWS Cleveland, OH

Home | Current Version | Previous Version | Text Only | Print | Product List | Glossary Off
Versions: 1 2 3 4 5 6 7 8 9 10 11 12 13 14 15 16 17 18 19 20 21 22 23 24 25 26 27 28 29 30 31 32 33 34 35 36 37 38 39 40 41 42 43 44 45 46 47 48 49 50

718
ASUS41 KCLE 221212
RWRCLE
OHIO REGIONAL WEATHER ROUNDUP
NATIONAL WEATHER SERVICE WILMINGTON, OH
800 AM EDT SUN APR 22 2018

NOTE: "FAIR" INDICATES FEW OR NO CLOUDS BELOW 12,000 FEET WITH NO
SIGNIFICANT WEATHER AND/OR OBSTRUCTIONS TO VISIBILITY.

OHZ001>008-015>018-024>027-034-035-043-044-221300-
   NORTHWEST OHIO

CITY           SKY/WX    TMP DP  RH WIND       PRES   REMARKS
DEFIANCE       FAIR      40  25  55 NE7       30.38R
FINDLAY        FAIR      42  27  55 NE10      30.36R
TOLEDO EXPRESS FAIR      42  30  62 E7        30.39R
TOLEDO EXEC    FAIR      42  32  67 NE8       30.40S
LIMA           FAIR      40  28  62 NE7       30.34R
$$

OHZ009>014-019>023-028>033-038-089-221300-
   NORTHEAST OHIO

CITY           SKY/WX    TMP DP  RH WIND       PRES   REMARKS
CLE-HOPKINS    PTSUNNY   41  32  70 NE8       30.42R
CLE-LAKEFRONT  FAIR      40  28  62 NE9       30.40R
CUY CO. ARPT   MOSUNNY   37  27  65 CALM      30.41R
LORAIN-ELYRIA  FAIR      40  30  67 NE14      30.39S
ASHTABULA      FAIR      34  30  85 CALM      30.42R
AKRON-CANTON   PTSUNNY   45  24  43 E10       30.36S
WOOSTER        FAIR      42  27  55 NE9       30.36S
MANSFIELD      FAIR      43  27  53 NE7       30.35S
YOUNGSTOWN     FAIR      43  21  41 E9        30.38R
$$

OHZ042-051>053-060>062-070>072-077>081-221300-
  SOUTHWEST OHIO

CITY           SKY/WX    TMP DP  RH WIND       PRES   REMARKS
CINC-COVINGTON CLOUDY    49  28  44 E9        30.29R
CINC-LUNKEN    FAIR      47  35  63 CALM      30.31R
HAMILTON       FAIR      47  30  51 CALM      30.32R
DAYTON         CLOUDY    44  32  62 CALM      30.33R
WRIGHT-PAT AFB FAIR      45  29  54 NE5       30.33R
DAYTON GENERAL FAIR      46  30  53 NE9       30.30R
WILMINGTON     FAIR      44  33  65 NE9       30.31R
$$

OHZ036-037-039>041-045>050-054>059-063>069-073>076-082>088-221300-
  CENTRAL AND SOUTHEAST OHIO

CITY           SKY/WX    TMP DP  RH WIND       PRES   REMARKS
COLUMBUS       CLOUDY    47  31  53 NE7       30.32R
OSU AIRPORT    FAIR      45  31  58 NE6       30.33R
BOLTON FIELD   SUNNY     45  34  65 N5        30.33R
RICKENBACK AFB FAIR      44  33  65 CALM      30.32R
NEWARK         FAIR      45  30  55 N3        30.32R
MARION         FAIR      40  31  70 NE8       30.34S
LANCASTER      FAIR      44  34  67 CALM      30.32R
ZANESVILLE     FAIR      45  31  58 N3        30.32R
NEW PHILLY     FAIR      45  30  55 NE3       30.35S
$$




USA.gov is the U.S. government's official web portal to all federal, state and local government web resources and services.